Flag for Morocco Weather past 2 weeks in Casablanca, Morocco

Now
77 °F

Sunny.


Feels Like: 79 °F
Forecast: 72 / 79 °F
Wind: 5 mph from Northeast

Location: Casablanca Airport

Current Time: Aug 23, 2014 at 12:27:32 PM

Latest Report: Aug 23, 2014 at 12:00 PM


Visibility: 10 mi

Pressure: 30.01 "Hg

Humidity: 74%

Dew point: 68 °F

Location of CasablancaLocation

Historic Weather in Casablanca — Graph

°F

Casablanca temperature yesterday

Maximum temperature yesterday: 77 °F (at 12:00 PM)
Minimum temperature yesterday: 72 °F (at 12:00 AM)
Average temperature yesterday: 74 °F

Past Weeks' High & Low Weather Summary

 TemperatureHumidityPressure
High81 °F (Aug 11, 2:00 PM)94% (Aug 8, 10:00 PM)31.13 "Hg (Aug 8, 10:00 PM)
Low68 °F (Aug 14, 7:00 AM)61% (Aug 14, 1:00 PM)29.77 "Hg (Aug 17, 1:00 PM)
Average74 °F81%29.96 "Hg
* Reported Aug 8 11:00 AM — Aug 23 11:00 AM, Casablanca, Weather by CustomWeather, © 2014

Note: Actual official high and low records may vary slightly from our data, if they occured in-between our weather recording intervals... More about our weather records

Advertising

Casablanca weather history for previous 24 hours

 ConditionsComfort  
Time TempWeatherWind HumidityBarometerVisibility
11:00 AM
Aug 23
77 °FPassing clouds.5 mph74%30.01 "HgN/A
10:00 AM75 °FPassing clouds.5 mph78%30.01 "HgN/A
9:00 AM68 °FSunny.2 mph88%30.01 "Hg10 mi
8:00 AM68 °FSunny.No wind88%30.01 "Hg10 mi
7:00 AM68 °FSunny.No wind88%30.01 "Hg10 mi
6:00 AM68 °FClear.No wind94%30.01 "Hg10 mi
1:00 AM70 °FPassing clouds.7 mph88%30.04 "HgN/A
12:00 AM72 °FPassing clouds.7 mph88%30.04 "HgN/A
11:00 PM
Aug 22
72 °FPassing clouds.7 mph88%30.04 "HgN/A
10:00 PM72 °FPassing clouds.7 mph88%30.04 "HgN/A
9:00 PM72 °FPassing clouds.9 mph83%30.04 "HgN/A
8:00 PM72 °FPartly sunny.9 mph83%30.04 "HgN/A
7:00 PM73 °FPartly sunny.9 mph78%30.04 "HgN/A
6:00 PM75 °FScattered clouds.9 mph74%30.04 "HgN/A
5:00 PM75 °FScattered clouds.14 mph74%30.04 "HgN/A
4:00 PM77 °FScattered clouds.12 mph69%30.04 "HgN/A
3:00 PM75 °FScattered clouds.9 mph74%30.04 "HgN/A
2:00 PM77 °FPassing clouds.9 mph69%30.04 "HgN/A
1:00 PM77 °FPassing clouds.9 mph69%30.04 "HgN/A
12:00 PM77 °FScattered clouds.9 mph69%30.04 "HgN/A
Weather by CustomWeather, © 2014

See weather overviewHow to use our weather pages